Time,TemperatureF,DewpointF,PressureIn,WindDirection,WindDirectionDegrees,WindSpeedMPH,WindSpeedGustMPH,Humidity,HourlyPrecipIn,Conditions,Clouds,dailyrainin,SoftwareType,DateUTC
2013-02-01 00:12:00,35.3,21.0,29.95,WSW,248,3.0,8.0,56,0.00,,,0.05,weatherlink.com 1.10,2013-02-01 05:12:00,
2013-02-01 00:27:00,35.3,21.0,29.94,NW,312,1.0,6.0,56,0.00,,,0.05,weatherlink.com 1.10,2013-02-01 05:27:00,
2013-02-01 00:42:00,35.3,21.0,29.95,SSW,206,2.0,7.0,56,0.00,,,0.00,weatherlink.com 1.10,2013-02-01 05:42:00,
2013-02-01 00:57:00,35.5,21.0,29.94,SSE,158,2.0,10.0,56,0.00,,,0.00,weatherlink.com 1.10,2013-02-01 05:57:00,
2013-02-01 01:12:00,35.9,21.0,29.92,SW,216,5.0,11.0,55,0.00,,,0.00,weatherlink.com 1.10,2013-02-01 06:12:00,
2013-02-01 01:27:00,35.9,21.0,29.91,WNW,299,2.0,9.0,55,0.00,,,0.00,weatherlink.com 1.10,2013-02-01 06:27:00,
2013-02-01 01:42:00,35.5,21.0,29.91,SSW,207,5.0,12.0,56,0.00,,,0.00,weatherlink.com 1.10,2013-02-01 06:42:00,
2013-02-01 01:58:00,35.1,21.0,29.89,SSW,196,3.0,10.0,57,0.00,,,0.00,weatherlink.com 1.10,2013-02-01 06:58:00,
2013-02-01 02:13:00,34.8,21.0,29.89,SE,134,5.0,9.0,58,0.00,,,0.00,weatherlink.com 1.10,2013-02-01 07:13:00,
2013-02-01 02:28:00,35.0,22.0,29.87,South,177,4.0,11.0,59,0.00,,,0.00,weatherlink.com 1.10,2013-02-01 07:28:00,
2013-02-01 02:43:00,35.3,23.0,29.86,SSE,161,4.0,12.0,60,0.00,,,0.00,weatherlink.com 1.10,2013-02-01 07:43:00,
2013-02-01 02:58:00,35.8,23.0,29.86,North,349,3.0,12.0,60,0.00,,,0.00,weatherlink.com 1.10,2013-02-01 07:58:00,
2013-02-01 03:13:00,36.0,23.0,29.86,SW,225,2.0,9.0,60,0.00,,,0.00,weatherlink.com 1.10,2013-02-01 08:13:00,
2013-02-01 03:28:00,35.8,23.0,29.86,West,261,2.0,9.0,61,0.00,,,0.00,weatherlink.com 1.10,2013-02-01 08:28:00,
2013-02-01 03:43:00,35.4,23.0,29.85,West,270,3.0,9.0,62,0.00,,,0.00,weatherlink.com 1.10,2013-02-01 08:43:00,
2013-02-01 03:58:00,35.5,24.0,29.86,SW,233,2.0,8.0,62,0.00,,,0.00,weatherlink.com 1.10,2013-02-01 08:58:00,
2013-02-01 04:13:00,36.1,24.0,29.86,WSW,248,3.0,10.0,62,0.00,,,0.00,weatherlink.com 1.10,2013-02-01 09:13:00,
2013-02-01 04:28:00,36.2,24.0,29.86,WSW,246,3.0,8.0,62,0.00,,,0.00,weatherlink.com 1.10,2013-02-01 09:28:00,
2013-02-01 04:43:00,36.0,24.0,29.86,West,263,2.0,9.0,63,0.00,,,0.00,weatherlink.com 1.10,2013-02-01 09:43:00,
2013-02-01 04:58:00,35.6,24.0,29.87,SW,234,2.0,5.0,64,0.00,,,0.00,weatherlink.com 1.10,2013-02-01 09:58:00,
2013-02-01 05:13:00,35.7,25.0,29.89,NW,311,2.0,4.0,65,0.00,,,0.00,weatherlink.com 1.10,2013-02-01 10:13:00,
2013-02-01 05:28:00,34.6,26.0,29.94,West,274,9.0,14.0,72,0.00,,,0.00,weatherlink.com 1.10,2013-02-01 10:28:00,
2013-02-01 05:43:00,33.4,27.0,29.94,NW,321,7.0,14.0,78,0.00,,,0.00,weatherlink.com 1.10,2013-02-01 10:43:00,
2013-02-01 05:58:00,34.0,24.0,29.96,WNW,292,8.0,11.0,68,0.00,,,0.00,weatherlink.com 1.10,2013-02-01 10:58:00,
2013-02-01 06:13:00,33.5,22.0,29.99,NW,325,7.0,12.0,62,0.00,,,0.00,weatherlink.com 1.10,2013-02-01 11:13:00,
2013-02-01 06:28:00,32.6,19.0,30.01,WNW,303,5.0,16.0,58,0.00,,,0.00,weatherlink.com 1.10,2013-02-01 11:28:00,
2013-02-01 06:43:00,31.6,15.0,30.02,WNW,298,5.0,18.0,51,0.00,,,0.00,weatherlink.com 1.10,2013-02-01 11:43:00,
2013-02-01 06:58:00,30.5,12.0,30.04,West,275,6.0,18.0,46,0.00,,,0.00,weatherlink.com 1.10,2013-02-01 11:58:00,
2013-02-01 07:13:00,30.0,11.0,30.06,WNW,290,5.0,15.0,45,0.00,,,0.00,weatherlink.com 1.10,2013-02-01 12:13:00,
2013-02-01 07:28:00,29.3,9.0,30.08,SW,235,6.0,14.0,42,0.00,,,0.00,weatherlink.com 1.10,2013-02-01 12:28:00,
2013-02-01 07:43:00,28.4,6.0,30.10,WNW,288,9.0,17.0,39,0.00,,,0.00,weatherlink.com 1.10,2013-02-01 12:43:00,
2013-02-01 07:58:00,28.1,6.0,30.13,WNW,290,4.0,17.0,39,0.00,,,0.00,weatherlink.com 1.10,2013-02-01 12:58:00,
2013-02-01 08:13:00,27.0,11.0,30.14,SW,218,9.0,17.0,50,0.00,,,0.00,weatherlink.com 1.10,2013-02-01 13:13:00,
2013-02-01 08:29:00,26.9,10.0,30.16,NW,306,4.0,15.0,49,0.00,,,0.00,weatherlink.com 1.10,2013-02-01 13:29:00,
2013-02-01 08:44:00,26.5,9.0,30.17,West,260,7.0,12.0,48,0.00,,,0.00,weatherlink.com 1.10,2013-02-01 13:44:00,
2013-02-01 08:59:00,26.3,8.0,30.18,NNW,344,6.0,14.0,45,0.00,,,0.00,weatherlink.com 1.10,2013-02-01 13:59:00,
2013-02-01 09:14:00,26.5,7.0,30.19,West,279,7.0,17.0,43,0.00,,,0.00,weatherlink.com 1.10,2013-02-01 14:14:00,
2013-02-01 09:29:00,26.9,4.0,30.21,West,269,7.0,18.0,38,0.00,,,0.00,weatherlink.com 1.10,2013-02-01 14:29:00,
2013-02-01 09:44:00,26.9,4.0,30.21,NW,309,4.0,13.0,38,0.00,,,0.00,weatherlink.com 1.10,2013-02-01 14:44:00,
2013-02-01 09:59:00,27.1,3.0,30.21,NW,311,6.0,14.0,35,0.00,,,0.00,weatherlink.com 1.10,2013-02-01 14:59:00,
2013-02-01 10:14:00,26.7,2.0,30.23,NW,323,9.0,21.0,34,0.00,,,0.00,weatherlink.com 1.10,2013-02-01 15:14:00,
2013-02-01 10:29:00,27.7,3.0,30.24,NNW,334,3.0,15.0,35,0.00,,,0.00,weatherlink.com 1.10,2013-02-01 15:29:00,
2013-02-01 10:44:00,28.5,4.0,30.25,WNW,286,5.0,16.0,35,0.00,,,0.00,weatherlink.com 1.10,2013-02-01 15:44:00,
2013-02-01 10:59:00,29.3,5.0,30.26,WNW,302,6.0,14.0,35,0.00,,,0.00,weatherlink.com 1.10,2013-02-01 15:59:00,
2013-02-01 11:14:00,28.2,3.0,30.27,West,274,8.0,19.0,34,0.00,,,0.00,weatherlink.com 1.10,2013-02-01 16:14:00,
2013-02-01 11:29:00,29.4,4.0,30.26,WNW,297,5.0,14.0,34,0.00,,,0.00,weatherlink.com 1.10,2013-02-01 16:29:00,
2013-02-01 11:44:00,30.3,5.0,30.27,WNW,297,13.0,13.0,34,0.00,,,0.00,weatherlink.com 1.10,2013-02-01 16:44:00,
2013-02-01 11:59:00,30.7,3.0,30.27,NW,325,5.0,13.0,31,0.00,,,0.00,weatherlink.com 1.10,2013-02-01 16:59:00,
2013-02-01 12:14:00,31.2,4.0,30.27,NW,304,8.0,13.0,32,0.00,,,0.00,weatherlink.com 1.10,2013-02-01 17:14:00,
2013-02-01 12:29:00,31.8,4.0,30.26,NNW,341,5.0,11.0,31,0.00,,,0.00,weatherlink.com 1.10,2013-02-01 17:29:00,
2013-02-01 12:44:00,32.7,5.0,30.26,WNW,289,9.0,16.0,31,0.00,,,0.00,weatherlink.com 1.10,2013-02-01 17:44:00,
2013-02-01 12:59:00,33.4,7.0,30.25,NW,305,3.0,9.0,33,0.00,,,0.00,weatherlink.com 1.10,2013-02-01 17:59:00,
2013-02-01 13:14:00,33.3,4.0,30.25,NW,309,3.0,11.0,29,0.00,,,0.00,weatherlink.com 1.10,2013-02-01 18:14:00,
2013-02-01 13:29:00,32.5,6.0,30.25,ENE,65,4.0,12.0,32,0.00,,,0.00,weatherlink.com 1.10,2013-02-01 18:29:00,
2013-02-01 13:44:00,34.0,6.0,30.25,NNE,30,4.0,9.0,31,0.00,,,0.00,weatherlink.com 1.10,2013-02-01 18:44:00,
2013-02-01 13:59:00,34.7,5.0,30.25,NNW,344,2.0,9.0,29,0.00,,,0.00,weatherlink.com 1.10,2013-02-01 18:59:00,
2013-02-01 14:14:00,34.3,4.0,30.26,NW,304,3.0,12.0,28,0.00,,,0.00,weatherlink.com 1.10,2013-02-01 19:14:00,
2013-02-01 14:29:00,35.0,6.0,30.26,SW,234,1.0,9.0,30,0.00,,,0.00,weatherlink.com 1.10,2013-02-01 19:29:00,
2013-02-01 14:44:00,35.1,4.0,30.26,North,355,7.0,12.0,27,0.00,,,0.00,weatherlink.com 1.10,2013-02-01 19:44:00,
2013-02-01 14:59:00,35.9,5.0,30.26,NW,306,2.0,11.0,27,0.00,,,0.00,weatherlink.com 1.10,2013-02-01 19:59:00,
2013-02-01 15:14:00,35.6,6.0,30.27,NW,315,3.0,8.0,29,0.00,,,0.00,weatherlink.com 1.10,2013-02-01 20:14:00,
2013-02-01 15:29:00,35.2,5.0,30.27,WNW,292,4.0,9.0,28,0.00,,,0.00,weatherlink.com 1.10,2013-02-01 20:29:00,
2013-02-01 15:44:00,34.5,5.0,30.27,North,350,7.0,8.0,29,0.00,,,0.00,weatherlink.com 1.10,2013-02-01 20:44:00,
2013-02-01 15:59:00,34.3,5.0,30.27,NNE,27,4.0,8.0,29,0.00,,,0.00,weatherlink.com 1.10,2013-02-01 20:59:00,
2013-02-01 16:14:00,34.3,6.0,30.28,West,263,5.0,9.0,30,0.00,,,0.00,weatherlink.com 1.10,2013-02-01 21:14:00,
2013-02-01 16:29:00,32.8,3.0,30.28,WNW,284,6.0,14.0,28,0.00,,,0.00,weatherlink.com 1.10,2013-02-01 21:29:00,
2013-02-01 16:44:00,32.5,4.0,30.29,NW,307,5.0,8.0,30,0.00,,,0.00,weatherlink.com 1.10,2013-02-01 21:44:00,
2013-02-01 17:14:00,31.0,4.0,30.30,NW,313,5.0,6.0,32,0.00,,,0.00,weatherlink.com 1.10,2013-02-01 22:14:00,
2013-02-01 17:29:00,30.0,3.0,30.31,NW,313,4.0,9.0,32,0.00,,,0.00,weatherlink.com 1.10,2013-02-01 22:29:00,
2013-02-01 17:44:00,29.0,4.0,30.31,NNE,24,2.0,6.0,34,0.00,,,0.00,weatherlink.com 1.10,2013-02-01 22:44:00,
2013-02-01 17:59:00,28.2,4.0,30.32,NNE,26,0.0,5.0,35,0.00,,,0.00,weatherlink.com 1.10,2013-02-01 22:59:00,
2013-02-01 18:14:00,27.6,3.0,30.32,NNW,335,1.0,5.0,35,0.00,,,0.00,weatherlink.com 1.10,2013-02-01 23:14:00,
2013-02-01 18:29:00,27.1,5.0,30.33,West,271,1.0,3.0,39,0.00,,,0.00,weatherlink.com 1.10,2013-02-01 23:29:00,
2013-02-01 18:44:00,26.6,6.0,30.33,NW,304,2.0,3.0,41,0.00,,,0.00,weatherlink.com 1.10,2013-02-01 23:44:00,
2013-02-01 18:59:00,26.2,5.0,30.34,West,271,0.0,3.0,41,0.00,,,0.00,weatherlink.com 1.10,2013-02-01 23:59:00,
2013-02-01 19:14:00,25.5,7.0,30.35,West,271,0.0,2.0,45,0.00,,,0.00,weatherlink.com 1.10,2013-02-02 00:14:00,
2013-02-01 19:30:00,24.8,7.0,30.35,West,271,1.0,1.0,47,0.00,,,0.00,weatherlink.com 1.10,2013-02-02 00:30:00,
2013-02-01 19:45:00,24.3,9.0,30.36,North,355,0.0,1.0,53,0.00,,,0.00,weatherlink.com 1.10,2013-02-02 00:45:00,
2013-02-01 20:00:00,23.6,7.0,30.36,North,355,0.0,0.0,50,0.00,,,0.00,weatherlink.com 1.10,2013-02-02 01:00:00,
2013-02-01 20:15:00,22.7,6.0,30.37,North,355,0.0,0.0,49,0.00,,,0.00,weatherlink.com 1.10,2013-02-02 01:15:00,
2013-02-01 20:30:00,22.4,7.0,30.38,North,355,0.0,0.0,52,0.00,,,0.00,weatherlink.com 1.10,2013-02-02 01:30:00,
2013-02-01 20:45:00,22.3,7.0,30.39,WNW,294,1.0,3.0,52,0.00,,,0.00,weatherlink.com 1.10,2013-02-02 01:45:00,
2013-02-01 21:00:00,23.2,6.0,30.39,NW,304,2.0,2.0,47,0.00,,,0.00,weatherlink.com 1.10,2013-02-02 02:00:00,
2013-02-01 21:15:00,23.3,9.0,30.39,NW,307,1.0,2.0,55,0.00,,,0.00,weatherlink.com 1.10,2013-02-02 02:15:00,
2013-02-01 21:30:00,22.3,7.0,30.40,NW,307,0.0,1.0,51,0.00,,,0.00,weatherlink.com 1.10,2013-02-02 02:30:00,
2013-02-01 21:45:00,21.7,7.0,30.40,NW,307,0.0,1.0,54,0.00,,,0.00,weatherlink.com 1.10,2013-02-02 02:45:00,
2013-02-01 22:00:00,20.9,10.0,30.40,NW,306,1.0,2.0,63,0.00,,,0.00,weatherlink.com 1.10,2013-02-02 03:00:00,
2013-02-01 22:15:00,21.1,9.0,30.40,NW,307,0.0,1.0,59,0.00,,,0.00,weatherlink.com 1.10,2013-02-02 03:15:00,
2013-02-01 22:30:00,20.8,9.0,30.40,NW,306,0.0,2.0,60,0.00,,,0.00,weatherlink.com 1.10,2013-02-02 03:30:00,
2013-02-01 22:45:00,20.5,8.0,30.40,NW,306,0.0,1.0,59,0.00,,,0.00,weatherlink.com 1.10,2013-02-02 03:45:00,
2013-02-01 23:00:00,20.2,9.0,30.40,NW,306,0.0,0.0,63,0.00,,,0.00,weatherlink.com 1.10,2013-02-02 04:00:00,
2013-02-01 23:15:00,19.9,9.0,30.40,NW,306,0.0,1.0,64,0.00,,,0.00,weatherlink.com 1.10,2013-02-02 04:15:00,
2013-02-01 23:30:00,19.3,10.0,30.40,NW,306,0.0,0.0,67,0.00,,,0.00,weatherlink.com 1.10,2013-02-02 04:30:00,
2013-02-01 23:45:00,19.6,9.0,30.40,NW,306,0.0,2.0,63,0.00,,,0.00,weatherlink.com 1.10,2013-02-02 04:45:00,